• în România
  • Lista ţărilor
  • Pe 7 zile
  • Temperatura apei
  • Hartă satelitară
  • Meteo pe hartă
  • Widget-uri
  • user-avatar
    Intrare

    Meteo pe oră la Scherbino

    Astăzi, 24 Septembrie, Luni

    Timp Temperatura Precipitaţii Vânt Presiune Umiditate
    00:00 +7°C° 0 mm 2 m/s 741 mmHg 93%
    01:00 +7°C° 0 mm 2 m/s 740 mmHg 95%
    02:00 +6°C° 0 mm 2 m/s 740 mmHg 96%
    03:00 +6°C° 0 mm 2 m/s 740 mmHg 96%
    04:00 +6°C° 0 mm 2 m/s 739 mmHg 96%
    05:00 +6°C° 0 mm 2 m/s 739 mmHg 96%
    06:00 +7°C° 0.3 mm 2 m/s 739 mmHg 95%
    07:00 +7°C° 0.3 mm 2 m/s 738 mmHg 94%
    08:00 +8°C° 0.3 mm 2 m/s 738 mmHg 94%
    09:00 +8°C° 1.7 mm 2 m/s 737 mmHg 94%
    10:00 +8°C° 1.7 mm 3 m/s 737 mmHg 94%
    11:00 +8°C° 1.7 mm 3 m/s 736 mmHg 95%
    12:00 +8°C° 2.6 mm 3 m/s 735 mmHg 95%
    13:00 +8°C° 2.6 mm 3 m/s 734 mmHg 95%
    14:00 +8°C° 2.6 mm 3 m/s 733 mmHg 96%
    15:00 +7°C° 1.7 mm 3 m/s 733 mmHg 95%
    16:00 +6°C° 1.7 mm 4 m/s 732 mmHg 95%
    17:00 +6°C° 1.7 mm 4 m/s 732 mmHg 95%
    18:00 +6°C° 1.2 mm 4 m/s 732 mmHg 95%
    19:00 +6°C° 1.2 mm 5 m/s 733 mmHg 94%
    20:00 +6°C° 1.2 mm 5 m/s 733 mmHg 93%
    21:00 +6°C° 0.5 mm 5 m/s 733 mmHg 93%
    22:00 +6°C° 0.5 mm 5 m/s 734 mmHg 92%
    23:00 +6°C° 0.5 mm 5 m/s 734 mmHg 91%

    Mâine, 25 Septembrie, Marţi

    Timp Temperatura Precipitaţii Vânt Presiune Umiditate
    00:00 +6°C° 0.2 mm 5 m/s 735 mmHg 91%
    01:00 +6°C° 0.2 mm 5 m/s 736 mmHg 90%
    02:00 +6°C° 0.2 mm 5 m/s 737 mmHg 89%
    03:00 +5°C° 0 mm 5 m/s 737 mmHg 90%
    04:00 +5°C° 0 mm 5 m/s 738 mmHg 91%
    05:00 +3°C° 0 mm 5 m/s 739 mmHg 91%
    06:00 +3°C° 0 mm 5 m/s 739 mmHg 90%
    07:00 +5°C° 0 mm 5 m/s 740 mmHg 89%
    08:00 +5°C° 0 mm 5 m/s 741 mmHg 87%
    09:00 +5°C° 0 mm 5 m/s 742 mmHg 84%
    10:00 +6°C° 0 mm 5 m/s 742 mmHg 81%
    11:00 +6°C° 0 mm 5 m/s 743 mmHg 77%
    12:00 +7°C° 0.1 mm 5 m/s 744 mmHg 71%
    13:00 +8°C° 0.1 mm 5 m/s 744 mmHg 64%
    14:00 +8°C° 0.1 mm 6 m/s 745 mmHg 58%
    15:00 +8°C° 0 mm 5 m/s 745 mmHg 60%
    16:00 +7°C° 0 mm 5 m/s 746 mmHg 61%
    17:00 +6°C° 0 mm 4 m/s 747 mmHg 63%
    18:00 +5°C° 0 mm 4 m/s 747 mmHg 65%
    19:00 +4°C° 0 mm 4 m/s 748 mmHg 67%
    20:00 +3°C° 0 mm 4 m/s 749 mmHg 70%
    21:00 +3°C° 0 mm 4 m/s 749 mmHg 70%
    22:00 +1°C° 0 mm 4 m/s 750 mmHg 71%
    23:00 +2°C° 0 mm 3 m/s 751 mmHg 71%

    Poimâine, 26 Septembrie, Miercuri

    Timp Temperatura Precipitaţii Vânt Presiune Umiditate
    00:00 +2°C° 0 mm 3 m/s 751 mmHg 74%
    01:00 +1°C° 0 mm 3 m/s 752 mmHg 77%
    02:00 +2°C° 0 mm 2 m/s 752 mmHg 79%
    03:00 +1°C° 0 mm 2 m/s 753 mmHg 82%
    04:00 +1°C° 0 mm 2 m/s 753 mmHg 85%
    05:00 +1°C° 0 mm 2 m/s 753 mmHg 88%
    06:00 +2°C° 0 mm 2 m/s 753 mmHg 86%
    07:00 +2°C° 0 mm 3 m/s 754 mmHg 84%
    08:00 +3°C° 0 mm 3 m/s 754 mmHg 82%
    09:00 +5°C° 0 mm 3 m/s 754 mmHg 75%
    10:00 +8°C° 0 mm 3 m/s 753 mmHg 67%
    11:00 +10°C° 0 mm 4 m/s 753 mmHg 59%
    12:00 +10°C° 0 mm 4 m/s 752 mmHg 57%
    13:00 +9°C° 0 mm 5 m/s 752 mmHg 55%
    14:00 +10°C° 0 mm 5 m/s 751 mmHg 53%
    15:00 +9°C° 0.1 mm 5 m/s 750 mmHg 60%
    16:00 +8°C° 0.1 mm 5 m/s 750 mmHg 67%
    17:00 +7°C° 0.1 mm 6 m/s 749 mmHg 74%
    18:00 +5°C° 0.7 mm 6 m/s 748 mmHg 78%
    19:00 +4°C° 0.7 mm 6 m/s 747 mmHg 82%
    20:00 +4°C° 0.7 mm 7 m/s 746 mmHg 85%
    21:00 +4°C° 1.6 mm 7 m/s 745 mmHg 87%
    22:00 +4°C° 1.6 mm 7 m/s 744 mmHg 88%
    23:00 +4°C° 1.6 mm 8 m/s 743 mmHg 90%

    27 Septembrie, Joi

    Timp Temperatura Precipitaţii Vânt Presiune Umiditate
    00:00 +4°C° 1.5 mm 7 m/s 742 mmHg 90%
    01:00 +5°C° 1.5 mm 7 m/s 741 mmHg 91%
    02:00 +5°C° 1.5 mm 6 m/s 741 mmHg 92%
    03:00 +5°C° 0.6 mm 6 m/s 741 mmHg 92%
    04:00 +7°C° 0.6 mm 5 m/s 741 mmHg 93%
    05:00 +7°C° 0.6 mm 4 m/s 741 mmHg 93%
    06:00 +7°C° 0 mm 4 m/s 741 mmHg 91%
    07:00 +7°C° 0 mm 4 m/s 741 mmHg 89%
    08:00 +7°C° 0 mm 4 m/s 741 mmHg 87%
    09:00 +10°C° 0 mm 4 m/s 741 mmHg 80%
    10:00 +11°C° 0 mm 4 m/s 741 mmHg 74%
    11:00 +12°C° 0 mm 4 m/s 741 mmHg 67%
    12:00 +12°C° 0.1 mm 4 m/s 741 mmHg 66%
    13:00 +12°C° 0.1 mm 5 m/s 741 mmHg 66%
    14:00 +13°C° 0.1 mm 5 m/s 741 mmHg 65%
    15:00 +12°C° 0.1 mm 4 m/s 741 mmHg 70%
    16:00 +11°C° 0.1 mm 3 m/s 741 mmHg 75%
    17:00 +12°C° 0.1 mm 2 m/s 741 mmHg 80%
    18:00 +10°C° 0.4 mm 2 m/s 740 mmHg 85%
    19:00 +10°C° 0.4 mm 2 m/s 740 mmHg 90%
    20:00 +10°C° 0.4 mm 2 m/s 740 mmHg 95%
    21:00 +10°C° 0.5 mm 3 m/s 739 mmHg 95%
    22:00 +11°C° 0.5 mm 3 m/s 738 mmHg 95%
    23:00 +11°C° 0.5 mm 4 m/s 738 mmHg 95%

    28 Septembrie, Vineri

    Timp Temperatura Precipitaţii Vânt Presiune Umiditate
    00:00 +11°C° 1 mm 4 m/s 737 mmHg 94%
    01:00 +12°C° 1 mm 5 m/s 736 mmHg 92%
    02:00 +11°C° 1 mm 6 m/s 735 mmHg 91%
    03:00 +11°C° 1.7 mm 6 m/s 734 mmHg 91%
    04:00 +11°C° 1.7 mm 6 m/s 734 mmHg 91%
    05:00 +11°C° 1.7 mm 6 m/s 734 mmHg 90%
    06:00 +10°C° 0.4 mm 6 m/s 735 mmHg 89%
    07:00 +9°C° 0.4 mm 6 m/s 736 mmHg 88%
    08:00 +7°C° 0.4 mm 5 m/s 737 mmHg 87%
    09:00 +8°C° 0 mm 5 m/s 738 mmHg 82%
    10:00 +9°C° 0 mm 5 m/s 739 mmHg 76%
    11:00 +9°C° 0 mm 5 m/s 740 mmHg 71%
    12:00 +10°C° 0.1 mm 5 m/s 741 mmHg 68%
    13:00 +10°C° 0.1 mm 5 m/s 741 mmHg 66%
    14:00 +10°C° 0.1 mm 5 m/s 742 mmHg 64%
    15:00 +9°C° 0.1 mm 5 m/s 742 mmHg 67%
    16:00 +8°C° 0.1 mm 4 m/s 743 mmHg 71%
    17:00 +8°C° 0.1 mm 3 m/s 744 mmHg 74%
    18:00 +7°C° 0 mm 3 m/s 744 mmHg 77%
    19:00 +5°C° 0 mm 3 m/s 745 mmHg 80%
    20:00 +5°C° 0 mm 2 m/s 746 mmHg 83%
    21:00 +5°C° 0 mm 2 m/s 746 mmHg 84%
    22:00 +4°C° 0 mm 2 m/s 747 mmHg 85%
    23:00 +4°C° 0 mm 2 m/s 747 mmHg 86%

    29 Septembrie, Sâmbătă

    Timp Temperatura Precipitaţii Vânt Presiune Umiditate
    00:00 +4°C° 0 mm 2 m/s 747 mmHg 87%
    01:00 +3°C° 0 mm 2 m/s 748 mmHg 87%
    02:00 +3°C° 0 mm 2 m/s 748 mmHg 87%
    03:00 +3°C° 0 mm 2 m/s 749 mmHg 89%
    04:00 +2°C° 0 mm 2 m/s 749 mmHg 90%
    05:00 +2°C° 0 mm 2 m/s 749 mmHg 91%
    06:00 +2°C° 0 mm 2 m/s 750 mmHg 87%
    07:00 +3°C° 0 mm 2 m/s 750 mmHg 82%
    08:00 +4°C° 0 mm 2 m/s 751 mmHg 78%
    09:00 +5°C° 0 mm 2 m/s 751 mmHg 69%
    10:00 +7°C° 0 mm 2 m/s 751 mmHg 61%
    11:00 +8°C° 0 mm 2 m/s 752 mmHg 52%
    12:00 +9°C° 0 mm 2 m/s 752 mmHg 50%
    13:00 +9°C° 0 mm 3 m/s 752 mmHg 47%
    14:00 +10°C° 0 mm 3 m/s 751 mmHg 44%
    15:00 +9°C° 0 mm 2 m/s 752 mmHg 51%
    16:00 +8°C° 0 mm 2 m/s 752 mmHg 57%
    17:00 +7°C° 0 mm 2 m/s 752 mmHg 64%
    18:00 +6°C° 0 mm 2 m/s 753 mmHg 69%
    19:00 +5°C° 0 mm 2 m/s 753 mmHg 74%
    20:00 +5°C° 0 mm 2 m/s 754 mmHg 78%
    21:00 +4°C° 0 mm 2 m/s 754 mmHg 81%
    22:00 +4°C° 0 mm 1 m/s 755 mmHg 84%
    23:00 +3°C° 0 mm 1 m/s 755 mmHg 87%
    Arată mai mult

    3.3.7123123